SCP
0 0 0 0 0 0 0 0 0 0 0 0 0 0 0 0 0 0 0 0 0 0 0 0 0 0 0 0 0 0 0 0 0 0 0 0 0 0 0 0 0 0 0
0 0 0 0 0 0 0 0 0 0 0 0 0 0 0 0 0 0 0 0 0 0 0 0 0 0 0 0 0 0 0 0 0 0 0 0 0 0 0 0 0 0 0
0 0 0 0 0 0 0 0 0 0 0 0 0 0 0 0 0 0 0 0 0 0 0 0 0 0 0 0 0 0 0 0 0 0 0 0 0 0 0 0 0 0 0
0 0 0 0 0 0 0 0 0 0 0 0 0 0 0 0 0 0 0 0 0 0 0 0 0 0 0 0 0 0 0 0 0 0 0 0 0 0 0 0 0 0 0
0 0 0 0 0 0 0 0 0 0 0 0 0 0 0 0 0 0 0 0 0 0 0 0 0 0 0 0 0 0 0 0 0 0 0 0 0 0 0 0 0 0 0
0 0 0 0 0 0 0 0 0 0 0 0 0 0 0 0 0 0 0 0 0 0 0 0 0 0 0 0 0 0 0 0 0 0 0 0 0 0 0 0 0 0 0
-0 -0 0 0 0 0 0 0 0 0 0 0 0 0 0 0 0 0 0 0 0 0 0 0 0 0 0 0 0 0 0 0 0 0 0 0 0 0 0 0 0 0 0
0 0 0 0 0 0 0 0 0 0 0 0 0 0 0 0 0 0 0 0 0 0 0 0 0 0 0 0 0 0 0 0 0 0 0 0 0 0 0 0 0 0 0
0 0 0 0 0 0 0 0 0 0 0 0 0 0 0 0 0 0 0 0 0 0 0 0 0 0 0 0 0 0 0 0 0 0 0 0 0 0 0 0 0 0 0
0 0 0 0 0 0 0 0 0 0 0 0 0 0 0 0 0 0 0 0 0 0 0 0 0 0 0 0 0 0 0 0 0 0 0 0 0 0 0 0 0 0 0
0 0 0 0 0 0 0 0 0 0 0 0 0 0 0 0 0 0 0 0 0 0 0 0 0 0 0 0 0 0 0 0 0 0 0 0 0 0 0 0 0 0 0
0 0 0 0 0 0 0 0 0 0 0 0 0 0 0 0 0 0 0 0 0 0 0 0 0 0 0 0 0 0 0 0 0 0 0 0 0 0 0 0 0 0 0
0 0 0 0 0 0 0 0 0 0 0 0 0 0 0 0 0 0 0 0 0 0 0 0 0 0 0 0 0 0 0 0 0 0 0 0 0 0 0 0 0 0 0
0 0 0 0 0 0 0 0 0 0 0 0 0 0 0 0 0 0 0 0 0 0 0 0 0 0 0 0 0 0 0 0 0 0 0 0 0 0 0 0 0 0 0
0 0 0 0 0 0 0 0 0 0 0 0 0 0 0 0 0 0 0 0 0 0 0 0 0 0 0 0 0 0 0 0 0 0 0 0 0 0 0 0 0 0 0
0 0 0 0 0 0 0 0 0 0 0 0 0 0 0 0 0 0 0 0 0 0 0 0 0 0 0 0 0 0 0 0 0 0 0 0 0 0 0 0 0 0 0
0 0 0 0 0 0 0 0 0 0 0 0 0 0 0 0 0 0 0 0 0 0 0 0 0 0 0 0 0 0 0 0 0 0 0 0 0 0 0 0 0 0 0
0 0 0 0 0 0 0 0 0 0 0 0 0 0 0 0 0 0 0 0 0 0 0 0 0 0 0 0 0 0 0 0 0 0 0 0 0 0 0 0 0 0 0
0 0 0 0 0 0 0 0 0 0 0 0 0 0 0 0 0 0 0 0 0 0 0 0 0 0 0 0 0 0 0 0 0 0 0 0 0 0 0 0 0 0 0
0 0 0 0 0 0 0 0 0 0 0 0 0 0 0 0 0 0 0 0 0 0 0 0 0 0 0 0 0 0 0 0 0 0 0 0 0 0 0 0 0 0 0
0 0 0 0 0 0 0 0 0 0 0 0 0 0 0 0 0 0 0 0 0 0 0 0 0 0 0 0 0 0 0 0 0 0 0 0 0 0 0 0 0 0 0
0 0 0 0 0 0 0 0 0 0 0 0 0 0 0 0 0 0 0 0 0 0 0 0 0 0 0 0 0 0 0 0 0 0 0 0 0 0 0 0 0 0 0
0 0 0 0 0 0 0 0 0 0 0 0 0 0 0 0 0 0 0 0 0 0 0 0 0 0 0 0 0 0 0 0 0 0 0 0 0 0 0 0 0 0 0
0 0 0 0 0 0 0 0 0 0 0 0 0 0 0 0 0 0 0 0 0 0 0 0 0 0 0 0 0 0 0 0 0 0 0 0 0 0 0 0 0 0 0
0 0 0 0 0 0 0 0 0 0 0 0 0 0 0 0 0 0 0 0 0 0 0 0 0 0 0 0 0 0 0 0 0 0 0 0 0 0 0 0 0 0 0
0 0 0 0 0 0 0 0 0 0 0 0 0 0 0 0 0 0 0 0 0 0 0 0 0 0 0 0 0 0 0 0 0 0 0 0 0 0 0 0 0 0 0
Wind_Speed
3 3 3 2 3 3 3 3 3 5 4 5 4 4 5 4 4 4 5 9 9 8 8 9 8 8 8 7 7 7 7 7 6 6 6 5 5 4 4 3 3 2 2
2 2 3 3 3 2 3 2 3 3 3 4 4 4 4 4 4 4 4 6 8 8 7 7 7 7 7 7 7 7 7 7 7 7 6 6 5 5 5 4 3 3 3
2 2 2 3 2 2 2 2 3 2 3 3 4 4 4 4 3 4 4 3 5 7 7 7 7 7 6 6 6 6 6 6 6 6 6 6 6 6 5 5 4 4 3
3 3 2 2 2 2 2 2 2 2 3 3 3 3 3 3 4 3 3 3 3 3 6 7 6 6 6 6 6 6 6 6 6 5 5 5 5 5 4 4 4 4 3
3 3 2 1 2 2 2 2 2 2 2 3 3 3 3 3 3 3 3 3 3 2 3 6 6 6 6 6 6 6 6 6 5 5 5 5 5 4 4 4 4 4 3
2 3 1 2 2 2 2 2 3 2 2 2 2 3 2 2 2 3 2 2 2 3 2 2 2 4 5 5 5 5 5 5 5 5 4 4 4 4 3 3 3 3 3
2 2 1 2 2 2 2 2 2 2 2 1 1 1 2 2 2 2 2 2 2 2 2 2 1 1 3 5 4 4 4 4 4 4 4 4 4 3 3 2 2 2 3
1 1 1 1 2 1 2 2 1 1 1 0 1 1 1 2 1 2 1 1 2 1 2 2 2 1 1 1 4 3 3 3 2 2 3 3 3 3 2 2 1 1 2
1 1 1 1 1 1 1 1 1 1 0 0 2 2 2 0 1 1 1 1 1 1 1 2 2 2 1 1 2 3 3 2 2 2 2 2 1 2 2 2 1 1 2
2 1 1 1 1 0 1 1 0 0 1 0 0 1 2 2 1 1 1 0 1 1 1 1 1 1 1 1 2 3 3 2 2 1 1 1 2 2 2 1 2 2 2
2 2 1 1 1 1 1 0 1 1 1 1 1 0 0 1 2 2 1 1 1 0 1 1 0 1 1 1 1 3 3 2 2 2 2 2 2 2 2 2 2 2 2
1 1 1 1 1 1 1 1 1 1 1 1 1 1 1 1 1 1 2 2 1 0 1 1 1 0 0 0 1 3 1 1 1 2 2 2 2 3 3 2 2 3 3
2 2 2 2 1 1 1 1 1 1 1 1 1 1 1 2 2 2 2 2 2 2 1 2 1 1 1 1 1 1 1 1 1 2 2 3 3 3 3 3 3 4 4
2 2 2 2 1 1 1 1 1 1 1 2 1 1 1 1 2 2 2 2 3 2 3 2 1 1 1 1 1 2 2 2 1 2 3 3 3 3 4 4 4 5 5
2 2 2 2 1 1 1 2 2 2 2 2 2 2 1 1 2 2 2 3 3 3 3 1 1 1 1 1 1 3 2 3 2 3 3 3 3 3 4 4 5 5 5
2 3 3 3 2 2 2 2 2 1 2 1 1 2 2 2 1 2 2 2 3 4 4 2 2 2 2 2 2 4 2 3 4 4 4 4 4 4 4 5 5 5 6
3 3 3 2 2 2 2 2 3 3 3 3 3 2 2 2 2 2 2 3 3 3 4 4 2 2 3 4 2 4 3 4 3 5 4 4 5 5 5 5 5 6 6
3 3 3 2 2 2 2 2 2 3 3 2 2 2 2 2 3 2 2 3 3 3 4 5 4 3 4 4 3 4 4 3 4 3 5 5 6 6 6 6 6 6 6
3 3 3 2 2 2 2 2 3 3 2 2 2 2 2 2 3 2 3 3 3 3 4 5 4 3 3 3 3 4 4 4 4 3 6 7 7 7 7 7 6 6 6
3 3 2 2 2 2 2 2 2 2 2 2 2 2 2 3 3 3 3 3 3 4 4 4 4 3 3 3 4 3 4 3 4 4 3 4 5 7 8 8 8 6 6
3 3 2 2 2 1 1 1 2 2 2 2 2 3 2 2 3 3 3 3 3 4 3 3 3 3 3 2 3 3 4 4 4 3 4 4 4 5 5 7 8 7 6
3 3 2 2 1 1 1 2 3 2 2 3 3 2 2 3 2 2 2 4 5 4 4 3 3 4 5 4 3 4 4 4 4 2 4 5 4 5 4 4 3 5 6
3 3 2 2 2 2 2 1 2 3 3 3 3 3 2 1 3 3 4 6 5 5 5 6 5 5 6 5 5 5 5 5 5 3 4 5 4 5 4 3 3 5 6
3 2 2 2 2 2 2 1 1 3 3 3 3 3 3 3 2 4 4 4 4 3 4 6 6 6 5 5 5 6 6 6 5 3 3 5 4 4 4 4 4 5 5
3 2 2 2 2 2 3 1 2 2 2 2 2 3 3 3 1 4 5 4 4 3 3 4 5 5 5 5 5 4 4 4 5 3 2 4 5 5 5 4 2 4 6
3 3 2 2 1 1 3 1 2 1 2 1 1 1 1 3 3 3 5 4 5 4 4 3 5 5 5 4 4 6 4 5 5 4 2 3 4 4 4 3 3 3 4
Wind_Direction
68 76 75 74 64 65 69 59 57 62 63 64 66 67 68 66 65 69 82 78 72 68 71 75 77 78 79 76 75 76 75 75 77 74 69 69 70 75 70 67 64 67 65
74 67 73 73 71 65 60 64 66 64 59 57 57 63 66 68 72 80 85 94 85 72 71 76 79 78 81 84 83 80 76 78 79 74 66 63 64 70 64 62 60 61 55
81 79 72 75 75 73 77 67 73 65 69 70 66 58 56 54 66 75 79 82 97 93 81 75 75 75 75 81 82 79 76 76 74 68 64 62 60 58 56 56 58 57 50
74 70 70 77 80 75 73 72 65 74 73 64 61 60 65 64 64 66 78 83 74 84 94 83 75 73 71 74 78 80 79 75 70 65 63 62 59 54 51 47 50 53 47
91 87 68 69 79 72 63 65 67 63 76 73 71 67 61 62 66 68 75 74 73 72 86 102 94 76 73 73 75 77 77 73 67 64 62 60 55 49 49 46 41 39 39
94 96 104 90 76 81 76 82 85 81 73 82 74 67 59 65 66 62 65 81 74 68 69 81 112 106 91 77 71 71 72 68 63 60 63 63 55 45 41 39 36 32 32
109 101 108 85 71 76 74 83 94 107 94 90 111 104 93 79 66 72 62 70 74 63 68 67 63 73 119 116 88 70 67 63 60 61 57 51 49 48 37 28 29 35 34
127 116 143 124 123 112 107 94 105 82 79 298 287 241 170 145 116 66 65 64 55 62 52 48 50 55 37 86 92 81 54 49 51 52 50 43 38 38 34 26 10 24 22
146 158 139 166 160 174 139 159 159 153 146 345 335 312 296 37 78 127 59 56 56 46 46 35 40 43 48 58 104 102 62 36 27 22 29 25 18 14 12 9 356 9 357
172 183 172 208 197 191 192 192 170 263 260 231 65 333 333 356 271 188 182 101 50 16 3 23 18 33 34 35 72 63 63 27 343 332 341 347 2 347 343 336 345 339 328
180 184 191 206 212 210 236 221 224 259 262 284 293 274 347 288 273 275 264 264 218 310 341 327 347 6 28 25 36 62 54 9 339 320 315 319 334 338 327 315 325 335 333
184 189 213 216 211 217 224 220 215 228 265 280 281 269 261 277 284 271 262 262 273 266 276 310 298 299 317 5 66 60 42 334 314 308 304 305 308 317 325 322 306 312 311
191 192 209 218 219 228 229 218 216 220 232 243 260 288 294 291 287 279 274 281 283 265 242 232 231 242 239 228 141 134 189 217 298 297 299 302 302 309 307 312 310 303 301
208 197 201 224 221 226 218 209 235 228 236 232 243 247 256 277 279 266 268 276 275 262 245 240 202 221 242 249 77 230 193 167 237 280 288 291 289 296 299 299 300 298 295
199 198 206 217 207 216 221 211 233 226 240 250 242 238 246 247 253 257 258 259 275 276 270 260 242 235 246 258 176 242 246 143 205 258 275 280 271 277 290 292 292 291 290
195 196 207 211 199 203 209 221 241 252 243 229 242 247 247 246 255 253 252 258 268 278 282 288 274 271 282 263 231 260 260 167 209 234 260 266 258 261 269 276 281 287 288
193 194 207 217 216 214 213 210 232 231 240 230 227 238 243 261 255 249 250 254 255 264 270 277 278 275 264 265 253 260 253 247 218 199 233 255 255 255 262 272 275 281 280
194 197 198 212 217 228 236 226 228 233 237 243 247 253 258 253 259 262 262 259 258 261 268 275 278 280 280 282 275 268 264 259 262 193 213 243 254 255 259 265 270 275 271
189 193 194 203 207 220 231 229 225 225 225 236 247 253 261 259 257 255 259 265 265 264 262 263 274 286 277 280 276 268 267 264 264 224 212 230 243 251 255 259 264 271 268
187 193 194 197 199 208 218 215 217 224 227 233 246 256 267 267 269 267 260 269 273 269 261 264 270 271 270 276 271 267 267 261 264 255 245 246 241 242 247 253 257 259 264
187 184 189 192 196 216 250 261 225 228 231 236 241 242 258 309 336 317 305 292 280 267 261 264 268 275 273 275 280 276 275 275 266 260 268 258 246 248 244 241 242 251 255
179 174 191 188 192 178 67 339 290 233 238 238 244 246 230 223 213 225 268 293 297 282 278 269 268 269 276 273 283 282 282 281 276 258 275 272 260 261 259 259 244 243 251
168 172 181 183 188 145 124 143 295 271 250 255 257 251 250 259 257 249 225 225 236 252 271 278 271 276 281 286 281 277 280 281 283 291 279 274 266 268 272 268 219 236 253
163 173 171 176 171 132 126 157 244 247 246 252 261 265 255 253 276 286 269 258 256 248 251 259 272 280 287 294 284 278 281 281 283 277 265 277 279 279 280 269 200 219 241
164 166 157 167 174 145 133 168 247 235 242 253 266 279 283 273 348 293 271 266 265 263 239 254 280 286 300 304 297 276 275 272 274 267 252 279 288 290 281 269 233 214 232
164 158 153 173 182 153 122 152 271 246 255 262 266 271 346 319 333 299 276 274 272 277 276 253 242 242 253 248 247 262 270 273 278 271 240 269 282 290 280 268 274 255 241